Latest Coastal Weather Observations for Browse Island

IDW60701

Issued at 10:02 am WST Friday 29 July 2016 (issued every 10 minutes, with the page automatically refreshed every 10 minutes)

About coastal observations | Map of coastal stations | Coastal observations for WA | Marine services | Other Formats
Station Details ID: 200784 Name: BROWSE ISLAND Lat: -14.11 Lon: 123.55 Height: 3.7 m
Data from the previous 72 hours. | See also: Recent months at Browse Island
Date/Time
WST
Temp
°C
Wind Pressure Rain since
9am
mm
Weather Cloud Vis
km
Sea
Height
m
Swell
Dir  Spd
kts
Gust
kts
hPa Trend Height
m
Period
s
Dir
29/10:00am 27.9 ESE 15 16 1015.0 - - - - - - - - -
29/09:30am 28.0 ESE 13 - 1015.0 - - - - - - - - -
29/09:00am 27.4 ESE 13 - 1015.4 - - - - - - - - -
29/08:30am 27.0 ESE 12 - 1015.0 - - - - - - - - -
29/08:00am 26.9 ESE 11 - 1015.3 - - - - - - - - -
29/07:30am 27.0 ESE 12 - 1015.0 - - - - - - - - -
29/07:00am 26.5 ESE 11 - 1015.0 - - - - - - - - -
29/06:30am 27.0 ESE 11 - 1014.0 - - - - - - - - -
29/06:00am 26.5 ESE 11 - 1014.6 - - - - - - - - -
29/05:30am 26.0 ESE 10 - 1014.0 - - - - - - - - -
29/05:00am 26.5 ESE 9 - 1014.3 - - - - - - - - -
29/04:30am 27.0 E 9 - 1014.0 - - - - - - - - -
29/04:00am 26.4 E 9 - 1014.2 - - - - - - - - -
29/03:30am 26.0 E 8 - 1014.0 - - - - - - - - -
29/03:00am 26.5 E 9 - 1014.2 - - - - - - - - -
29/02:30am 26.0 ENE 9 - 1014.0 - - - - - - - - -
29/02:00am 26.3 ENE 8 - 1014.3 - - - - - - - - -
29/01:30am 27.0 ENE 9 - 1014.0 - - - - - - - - -
29/01:00am 26.5 ENE 9 - 1014.8 - - - - - - - - -
29/12:30am 27.0 ENE 9 - 1014.0 - - - - - - - - -
29/12:00am 26.5 ENE 8 - 1014.9 - - - - - - - - -
 
Date/Time
WST
Temp
°C
Wind Pressure Rain since
9am
mm
Weather Cloud Vis
km
Sea
Height
m
Swell
Dir  Spd
kts
Gust
kts
hPa Trend Height
m
Period
s
Dir
28/11:30pm 27.0 ENE 8 - 1015.0 - - - - - - - - -
28/11:00pm 26.8 NE 8 - 1015.1 - - - - - - - - -
28/10:30pm 27.0 ENE 8 - 1015.0 - - - - - - - - -
28/10:00pm 26.8 ENE 8 - 1015.3 - - - - - - - - -
28/09:30pm 27.0 NE 9 - 1015.0 - - - - - - - - -
28/09:00pm 26.9 NE 9 - 1015.2 - - - - - - - - -
28/08:30pm 27.0 NE 9 - 1015.0 - - - - - - - - -
28/08:00pm 26.9 ENE 9 - 1015.2 - - - - - - - - -
28/07:30pm 27.0 ENE 10 - 1015.0 - - - - - - - - -
28/07:00pm 26.7 ENE 11 - 1014.8 - - - - - - - - -
28/06:30pm 27.0 E 11 - 1014.0 - - - - - - - - -
28/06:00pm 26.7 E 13 - 1014.1 - - - - - - - - -
28/05:30pm 27.0 E 12 - 1013.0 - - - - - - - - -
28/05:00pm 26.9 ENE 12 - 1013.5 - - - - - - - - -
28/04:30pm 27.0 E 13 - 1013.0 - - - - - - - - -
28/04:00pm 27.0 ENE 14 - 1013.3 - - - - - - - - -
28/03:30pm 27.0 ENE 15 - 1013.0 - - - - - - - - -
28/03:00pm 27.6 ENE 15 - 1013.2 - - - - - - - - -
28/02:30pm 27.0 E 15 - 1013.0 - - - - - - - - -
28/02:00pm 27.0 E 17 - 1013.5 - - - - - - - - -
28/01:30pm 28.0 E 16 - 1014.0 - - - - - - - - -
28/01:00pm 27.3 E 18 - 1014.1 - - - - - - - - -
28/12:30pm 27.0 E 18 - 1014.0 - - - - - - - - -
28/12:00pm 27.5 E 18 - 1015.0 - - - - - - - - -
28/11:30am 28.0 E 18 - 1015.0 - - - - - - - - -
28/11:00am 28.2 E 18 - 1015.6 - - - - - - - - -
28/10:30am 27.0 E 18 - 1015.0 - - - - - - - - -
28/10:00am 27.5 E 19 - 1016.0 - - - - - - - - -
28/09:30am 28.0 E 20 - 1016.0 - - - - - - - - -
28/09:00am 27.6 E 20 - 1016.2 - - - - - - - - -
28/08:30am 28.0 E 18 - 1016.0 - - - - - - - - -
28/08:00am 28.0 ESE 20 - 1016.2 - - - - - - - - -
28/07:30am 28.0 E 19 - 1016.0 - - - - - - - - -
28/07:00am 28.1 ESE 22 - 1015.8 - - - - - - - - -
28/06:30am 28.0 E 21 - 1015.0 - - - - - - - - -
28/06:00am 27.7 E 18 - 1015.3 - - - - - - - - -
28/05:30am 28.0 E 17 - 1015.0 - - - - - - - - -
28/05:00am 28.0 E 17 - 1014.6 - - - - - - - - -
28/04:30am 28.0 E 15 - 1014.0 - - - - - - - - -
28/04:00am 27.4 E 14 - 1014.5 - - - - - - - - -
28/03:30am 28.0 ENE 14 - 1014.0 - - - - - - - - -
28/03:00am 27.5 ENE 15 - 1014.3 - - - - - - - - -
28/02:30am 28.0 ENE 14 - 1014.0 - - - - - - - - -
28/02:00am 27.5 ENE 14 - 1014.4 - - - - - - - - -
28/01:30am 28.0 ENE 13 - 1014.0 - - - - - - - - -
28/01:00am 27.7 ENE 14 - 1014.6 - - - - - - - - -
28/12:30am 28.0 ENE 13 - 1014.0 - - - - - - - - -
28/12:00am 27.5 NE 14 - 1014.7 - - - - - - - - -
 
Date/Time
WST
Temp
°C
Wind Pressure Rain since
9am
mm
Weather Cloud Vis
km
Sea
Height
m
Swell
Dir  Spd
kts
Gust
kts
hPa Trend Height
m
Period
s
Dir
27/11:30pm 28.0 ENE 15 - 1014.0 - - - - - - - - -
27/11:00pm 27.5 NE 14 - 1014.8 - - - - - - - - -
27/10:30pm 28.0 NE 13 - 1015.0 - - - - - - - - -
27/10:00pm 27.5 NE 13 - 1015.0 - - - - - - - - -
27/09:30pm 28.0 NE 15 - 1014.0 - - - - - - - - -
27/09:00pm 27.9 NE 15 - 1014.7 - - - - - - - - -
27/08:30pm 28.0 NE 15 - 1014.0 - - - - - - - - -
27/08:00pm 27.9 NE 15 - 1014.5 - - - - - - - - -
27/07:30pm 28.0 NE 16 - 1014.0 - - - - - - - - -
27/07:00pm 28.0 ENE 15 - 1013.8 - - - - - - - - -
27/06:30pm 28.0 ENE 14 - 1013.0 - - - - - - - - -
27/06:00pm 28.0 ENE 13 - 1013.2 - - - - - - - - -
27/05:30pm 28.0 ENE 15 - 1013.0 - - - - - - - - -
27/05:00pm 28.1 ENE 15 - 1012.6 - - - - - - - - -
27/04:30pm 28.0 ENE 16 - 1012.0 - - - - - - - - -
27/04:00pm 28.2 ENE 18 - 1012.2 - - - - - - - - -
27/03:30pm 28.0 ENE 17 - 1012.0 - - - - - - - - -
27/03:00pm 28.4 ENE 17 - 1012.2 - - - - - - - - -
27/02:30pm 28.0 E 18 - 1012.0 - - - - - - - - -
27/02:00pm 28.8 E 17 - 1012.2 - - - - - - - - -
27/01:30pm 29.0 E 16 - 1012.0 - - - - - - - - -
27/01:00pm 29.4 E 15 - 1012.6 - - - - - - - - -
27/12:30pm 29.0 E 16 - 1012.0 - - - - - - - - -
27/12:00pm 28.5 E 15 - 1013.1 - - - - - - - - -
27/11:30am 29.0 E 14 - 1013.0 - - - - - - - - -
27/11:00am 28.8 ENE 11 - 1013.8 - - - - - - - - -
27/10:30am 29.0 ENE 12 - 1014.0 - - - - - - - - -
27/10:00am 29.1 E 9 - 1014.4 - - - - - - - - -
27/09:30am 29.0 E 8 - 1014.0 - - - - - - - - -
27/09:00am 28.4 E 8 - 1014.6 - - - - - - - - -
27/08:30am 29.0 E 8 - 1014.0 - - - - - - - - -
27/08:00am 28.3 E 7 - 1014.3 - - - - - - - - -
27/07:30am 28.0 ENE 6 - 1014.0 - - - - - - - - -
27/07:00am 27.4 E 6 - 1013.7 - - - - - - - - -
27/06:30am 27.0 ENE 6 - 1013.0 - - - - - - - - -
27/06:00am 26.8 ENE 7 - 1013.4 - - - - - - - - -
27/05:30am 27.0 ENE 7 - 1013.0 - - - - - - - - -
27/05:00am 26.8 E 4 - 1012.9 - - - - - - - - -
27/04:30am 27.0 ENE 5 - 1012.0 - - - - - - - - -
27/04:00am 26.7 ENE 6 - 1012.5 - - - - - - - - -
27/03:30am 27.0 E 5 - 1012.0 - - - - - - - - -
27/03:00am 26.8 ENE 5 - 1012.5 - - - - - - - - -
27/02:30am 27.0 E 5 - 1012.0 - - - - - - - - -
27/02:00am 26.6 E 5 - 1012.5 - - - - - - - - -
27/01:30am 27.0 ENE 5 - 1012.0 - - - - - - - - -
27/01:00am 26.8 ESE 5 - 1012.9 - - - - - - - - -
27/12:30am 27.0 ENE 5 - 1013.0 - - - - - - - - -
27/12:00am 26.7 E 4 - 1013.1 - - - - - - - - -
 
Date/Time
WST
Temp
°C
Wind Pressure Rain since
9am
mm
Weather Cloud Vis
km
Sea
Height
m
Swell
Dir  Spd
kts
Gust
kts
hPa Trend Height
m
Period
s
Dir
26/11:30pm 27.0 ESE 3 - 1013.0 - - - - - - - - -
26/11:00pm 26.7 SE 1 - 1013.4 - - - - - - - - -
26/10:30pm 27.0 CALM 0 - 1013.0 - - - - - - - - -
26/10:00pm 26.7 CALM 0 - 1013.5 - - - - - - - - -
26/09:30pm 27.0 CALM 0 - 1013.0 - - - - - - - - -
26/09:00pm 27.1 W 3 - 1013.3 - - - - - - - - -
26/08:30pm 27.0 W 4 - 1013.0 - - - - - - - - -
26/08:00pm 27.3 WNW 4 - 1013.1 - - - - - - - - -
26/07:30pm 27.0 W 4 - 1013.0 - - - - - - - - -
26/07:00pm 27.4 WSW 3 - 1012.6 - - - - - - - - -
26/06:30pm 28.0 SSW 4 - 1012.0 - - - - - - - - -
26/06:00pm 27.5 SSE 3 - 1012.3 - - - - - - - - -
26/05:30pm 28.0 SE 4 - 1012.0 - - - - - - - - -
26/05:00pm 27.8 S 7 - 1011.6 - - - - - - - - -
26/04:30pm 28.0 SE 5 - 1011.0 - - - - - - - - -
26/04:00pm 28.8 ESE 5 - 1011.0 - - - - - - - - -
26/03:30pm 29.0 E 5 - 1011.0 - - - - - - - - -
26/03:00pm 29.1 ENE 6 - 1010.8 - - - - - - - - -
26/02:30pm 29.0 ESE 7 - 1011.0 - - - - - - - - -
26/02:00pm 29.0 SE 7 - 1011.1 - - - - - - - - -
26/01:30pm 29.0 SSE 7 - 1011.0 - - - - - - - - -
26/01:00pm 28.8 SSE 7 - 1011.5 - - - - - - - - -
26/12:30pm 29.0 SSE 7 - 1011.0 - - - - - - - - -
26/12:00pm 28.9 S 7 - 1012.2 - - - - - - - - -
26/11:30am 28.0 S 7 - 1012.0 - - - - - - - - -
26/11:00am 28.3 S 8 - 1013.0 - - - - - - - - -
26/10:30am 28.0 S 7 - 1013.0 - - - - - - - - -

Other Formats:

Comma delimited format used in spreadsheet applications
http://www.bom.gov.au/fwo/IDW60701/IDW60701.94103.axf

JavaScript Object Notation format (JSON) in row-major order
http://www.bom.gov.au/fwo/IDW60701/IDW60701.94103.json